Regional Weather Roundup
Issued by NWS

Home | Current Version | Previous Version | Graphics & Text | Print | Product List | Glossary On
Versions: 1 2 3 4 5 6 7 8 9 10 11 12 13 14 15 16 17 18 19 20 21 22 23 24 25 26 27 28 29 30 31 32 33 34 35 36 37 38 39 40 41 42 43 44 45 46 47 48 49 50
000
ASUS43 KMKX 251200
RWRWI

WISCONSIN REGIONAL WEATHER ROUNDUP
NATIONAL WEATHER SERVICE MILWAUKEE/SULLIVAN WI
700 AM CDT MON JUL 25 2016

NOTE: "FAIR" INDICATES FEW OR NO CLOUDS BELOW 12,000 FEET WITH NO
SIGNIFICANT WEATHER AND/OR OBSTRUCTIONS TO VISIBILITY.

WIZ001-002-006>008-014>016-023>028-251300-
NORTHWEST WISCONSIN

CITY           SKY/WX    TMP DP  RH WIND       PRES   REMARKS
SUPERIOR ARPT  SUNNY     64  61  91 W7        29.99R
ASHLAND        SUNNY     65  61  87 SW6       29.98R
6HR MIN TEMP:  61; 6HR MAX TEMP:  67;

HAYWARD        SUNNY     62  60  93 CALM      30.01R
6HR MIN TEMP:  58; 6HR MAX TEMP:  67;

SIREN          NOT AVBL
CUMBERLAND     SUNNY     61  59  94 W3        30.02R
RICE LAKE      SUNNY     62  59  91 CALM      30.03R
CHETEK         SUNNY     64  61  91 W3        30.02R
LADYSMITH      SUNNY     61  60  96 CALM      30.02R
EAU CLAIRE     NOT AVBL
MENOMONIE      SUNNY     65  61  86 W5        30.02R
NEW RICHMOND   SUNNY     63  60  91 W3        30.03R
OSCEOLA        SUNNY     60  60 100 CALM      30.05R
$$

WIZ003>005-009-010-017-018-251300-
NORTH CENTRAL WISCONSIN

CITY           SKY/WX    TMP DP  RH WIND       PRES   REMARKS
MANITOWISH WTR SUNNY     62  62 100 W7        29.97S
ARBOR VITAE    SUNNY     64  62  90 NW5       29.98R
WOODRUFF       SUNNY     64  62  90 NW5       29.98R
RHINELANDER    SUNNY     65  60  84 W7        29.99R
6HR MIN TEMP:  61; 6HR MAX TEMP:  65;

EAGLE RIVER    SUNNY     64  61  92 W5        29.96R
LAND O LAKES   SUNNY     63  60  91 W5        29.97R
PHILLIPS       SUNNY     60  60  99 CALM      29.99R
TOMAHAWK       SUNNY     60  58  96 W3        29.99R
MEDFORD        SUNNY     61  61 100 W6        30.00R
MERRILL        SUNNY     62  62  99 W5        29.99R
$$

WIZ029-030-035-036-043>047-251300-
CENTRAL WISCONSIN

CITY           SKY/WX    TMP DP  RH WIND       PRES   REMARKS
WAUSAU         SUNNY     65  61  87 NW9       29.98R
6HR MIN TEMP:  64; 6HR MAX TEMP:  67;

MOSINEE        SUNNY     64  63  94 W7        30.00R
MARSHFIELD     SUNNY     65  61  87 W7        30.01R
6HR MIN TEMP:  63; 6HR MAX TEMP:  67;

STEVENS POINT  SUNNY     64  61  90 W5        30.00R
WAUPACA        SUNNY     68  66  91 W5        29.98R
WAUTOMA        SUNNY     68  64  87 NW7       30.00R
6HR MIN TEMP:  63; 6HR MAX TEMP:  69;

WISC RAPIDS    SUNNY     66  61  84 W5        30.02R
6HR MIN TEMP:  64; 6HR MAX TEMP:  68;

CAMP DOUGLAS   NOT AVBL
$$

WIZ011>013-019>022-031-037>040-048>050-251300-
NORTHEAST WISCONSIN

CITY           SKY/WX    TMP DP  RH WIND       PRES   REMARKS
ANTIGO         MOSUNNY   62  60  96 W7        29.98R
SHAWANO        SUNNY     67  62  83 W7        29.96R
OCONTO         SUNNY     66  66 100 W6        29.92R
STURGEON BAY   SUNNY     70  64  81 W8        29.94R
6HR MIN TEMP:  67; 6HR MAX TEMP:  73;

GREEN BAY      SUNNY     67  66  97 W8        29.95R
6HR MIN TEMP:  64; 6HR MAX TEMP:  70;

MANITOWOC      NOT AVBL
APPLETON       MOSUNNY   66  64  94 W8        29.96R
CLINTONVILLE   SUNNY     66  63  88 W5        29.97R
OSHKOSH        SUNNY     69  63  81 W7        29.98R
6HR MIN TEMP:  67; 6HR MAX TEMP:  72;

$$

WIZ032>034-041-042-053>061-251300-
SOUTHWEST WISCONSIN

CITY           SKY/WX    TMP DP  RH WIND       PRES   REMARKS
LA CROSSE      SUNNY     70  65  84 CALM      30.02R
6HR MIN TEMP:  67; 6HR MAX TEMP:  72;

SPARTA         SUNNY     59  58  97 CALM      30.03R
VIROQUA        SUNNY     63  63 100 SW5       30.05R
BOSCOBEL       SUNNY     67  66  97 S3        30.04R
6HR MIN TEMP:  65; 6HR MAX TEMP:  70;

PRAIRIE DU CHI SUNNY     65  63  92 CALM      30.04R
PLATTEVILLE    SUNNY     65  65 100 SW3       30.05R
$$

WIZ056-057-062-063-064-067-068-251300-
SOUTH CENTRAL WISCONSIN

CITY           SKY/WX    TMP DP  RH WIND       PRES   REMARKS
REEDSBURG      SUNNY     64  64 100 CALM      30.02R
BARABOO/DELLS  SUNNY     65  62  90 S3        30.02R
LONE ROCK      NOT AVBL
MINERAL POINT  SUNNY     68  64  88 NW3       30.04R
MADISON        MOSUNNY   71  65  81 NW5       30.01R
6HR MIN TEMP:  68; 6HR MAX TEMP:  74;

MIDDLETON      SUNNY     69  67  94 W5        30.02R
WATERTOWN      SUNNY     68  68 100 CALM      30.00R
MONROE         SUNNY     68  64  88 W7        30.03R
JANESVILLE     SUNNY     72  70  94 W6        30.00R
$$

WIZ051-052-058>065-066-070>072-251300-
SOUTHEAST WISCONSIN

CITY           SKY/WX    TMP DP  RH WIND       PRES   REMARKS
MILWAUKEE      SUNNY     75  64  68 NW9       29.97R
6HR MIN TEMP:  74; 6HR MAX TEMP:  81;

WAUKESHA       SUNNY     70  64  83 W6        30.00R
MILWAUKEE/TIMM SUNNY     70  61  73 W9        29.98S
RACINE         SUNNY     73  65  75 NW6       30.00R
6HR MIN TEMP:  72; 6HR MAX TEMP:  77;

BURLINGTON     SUNNY     69  67  92 NW7       29.99R
KENOSHA        SUNNY     72  67  84 W7        30.00R
6HR MIN TEMP:  68; 6HR MAX TEMP:  76;

FOND DU LAC    SUNNY     69  64  84 W6        29.99R
6HR MIN TEMP:  68; 6HR MAX TEMP:  74;

SHEBOYGAN      SUNNY     70  65  84 W6        29.97R
6HR MIN TEMP:  67; 6HR MAX TEMP:  75;

WEST BEND      SUNNY     70  63  78 W7        29.99R
JUNEAU         SUNNY     66  64  93 SW3       30.02R
$$

LSZ147-162-251300-
LAKE SUPERIOR

STATION/POSITION TIME  TEMP    WIND        PRES    WAVE
                       AIR SEA DIR/SP/G            HT/PER
                 (UTC) (F)     (DEG/KT/KT) (MB)    (FT/S)
W MID LAKE BUOY  1050   63 58  270/ 14/ 16 1011.3R   2/ 4
DEVILS ISLAND    1100   64     260/ 14/ 16 1013.6R
SAXON HARBOR     1100   65     200/  6/  8 1014.2R
$$

LMZ867-665-643>646-251300-
LAKE MICHIGAN

STATION/POSITION TIME  TEMP    WIND        PRES    WAVE
                       AIR SEA DIR/SP/G            HT/PER
                 (UTC) (F)     (DEG/KT/KT) (MB)    (FT/S)
CHAMBERS ISLAND  1100   69     230/  4/  8 1012.5R
S GREEN BAY BUOY 1030   70 74  250/ 12/ 14   N/A
N MID LAKE BUOY  1050   70 68  250/ 10/ 12 1010.7R   2/ 6
NORTHPORT PIER   1100   71     290/  8/ 13 1011.9R
KEWAUNEE LAKESHO 1100   67     290/  4/  6 1012.6R
SHEBOYGAN LAKESH 1100   71     280/ 10/ 11 1013.6R
PORT WASHINGTON  1100   72     260/  4/  6 1014.9R
MILWAUKEE LAKESH 1110   73     290/  8/ 10   N/A
S MID LAKE BUOY  1050   74 72  280/  8/ 10 1013.1R   2/ 5
KENOSHA   LAKESH 1100   73     300/ 10/ 12 1014.2R
$$

TC  - TEMPERATURE IN CELSIUS
VSB - VISIBILITY IN STATUTE MILES
WCI - WIND CHILL INDEX
HX  - HEAT INDEX





USA.gov is the U.S. government's official web portal to all federal, state and local government web resources and services.